Location: Newark
(44.3681°N, 100.3364°W)
Time: 12:50:14
(UTC+00:00)

S-56A Canister/Altair - Pass Details

Date: 29 February 2020
Orbit: 634 x 2498 km, 38.9° (Epoch: 04 April)

Event Time Altitude Azimuth Distance (km) Brightness Sun altitude
Rises 23:44:14 0° 279° (W) 6,142 13.4 6.9°
Reaches altitude 10° 23:53:09 10° 250° (WSW) 4,872 14.6 5.4°
Maximum altitude 23:56:04 11° 238° (WSW) 4,660 13.3 4.9°
Drops below altitude 10° 23:58:51 10° 225° (SW) 4,590 12.7 4.4°
Sets 00:06:16 0° 194° (SSW) 5,090 12.1 3.1°
